Probability
40 44 46 45 42 39 37 35 37 39 38 35 32 30 30 27 25 24 19 16 15 15 15 15 15 14 12 9 7 7 7 7 9 10 11 15 15 11 9 9 7 4 4
41 44 46 47 46 43 40 39 41 42 40 37 35 33 30 26 24 23 20 17 16 16 15 14 13 13 13 11 8 8 7 8 10 11 11 14 16 15 13 11 8 5 5
43 46 48 49 50 49 47 47 48 48 46 43 42 39 33 29 27 25 24 23 21 19 17 15 13 12 13 14 12 10 10 10 12 14 13 13 15 16 16 14 10 7 6
48 50 52 53 54 55 55 54 55 54 52 52 50 45 38 34 30 27 27 27 25 22 19 17 15 14 15 16 16 15 15 15 16 16 15 14 14 15 15 14 11 9 8
53 54 56 57 57 58 58 58 59 57 56 58 56 49 41 34 28 26 26 27 26 24 21 18 16 15 15 15 15 16 18 18 19 17 15 15 15 14 14 14 13 11 10
55 56 58 61 61 60 59 61 62 61 60 61 58 50 40 29 21 19 22 23 24 25 23 21 18 14 13 13 13 13 13 15 17 17 16 15 15 14 15 15 14 13 13
56 58 61 63 64 63 61 62 63 63 64 65 61 51 37 24 15 11 13 18 20 23 25 25 21 15 13 14 13 11 10 10 11 13 14 14 14 14 15 16 16 15 15
58 60 63 65 64 63 61 61 61 61 63 65 62 53 39 24 13 8 8 14 20 22 26 27 23 18 16 15 15 14 13 11 9 9 10 10 11 11 13 15 15 15 15
58 60 63 64 62 59 58 56 56 57 57 57 55 50 40 27 16 8 7 16 22 24 25 24 20 17 14 13 13 14 14 13 11 8 6 6 7 7 9 12 13 13 14
57 57 58 59 57 55 54 52 50 50 50 48 46 42 37 29 18 9 9 17 23 25 24 21 16 12 9 7 9 11 12 12 11 10 7 7 8 8 9 10 12 12 12
52 51 50 50 51 50 50 47 44 43 44 43 39 36 33 28 20 11 8 13 20 24 23 20 15 9 5 3 4 7 8 8 10 10 10 11 13 14 13 12 13 13 13
45 44 43 44 46 46 45 42 39 39 39 38 36 34 32 27 20 12 6 6 13 20 21 17 13 8 3 2 2 2 2 4 7 10 10 12 13 14 13 13 15 15 14
40 40 40 41 42 41 40 37 36 35 34 34 32 31 29 25 19 12 5 3 7 12 15 13 9 6 4 4 4 2 1 3 6 9 10 10 11 11 11 11 12 12 11
37 37 37 38 37 35 33 31 31 30 28 28 28 26 24 22 17 13 9 6 6 8 10 11 9 8 7 8 7 6 4 4 7 9 10 10 9 9 10 10 8 6 6
34 33 31 30 31 29 25 23 23 22 20 20 21 21 19 15 13 11 9 8 8 9 11 13 12 12 11 11 10 9 8 8 9 10 10 9 9 8 9 9 7 5 5
30 27 24 22 23 23 20 17 16 14 11 10 12 13 11 7 5 4 4 4 5 7 11 14 15 14 14 13 12 12 11 11 11 11 11 10 9 8 7 7 6 6 6
23 21 18 17 18 18 17 17 15 13 9 5 5 5 3 2 1 0 0 1 1 2 6 10 12 13 14 13 12 11 10 10 11 12 11 11 9 8 6 5 5 5 4
17 16 14 14 15 16 15 15 16 16 13 10 6 3 1 0 0 0 0 0 1 1 3 5 8 10 11 11 10 8 7 7 9 11 10 10 9 9 7 5 4 3 3
13 12 11 12 13 13 12 12 14 16 16 15 11 6 2 0 0 0 0 1 3 3 4 4 6 8 8 7 6 5 4 5 6 8 8 8 8 8 7 5 4 3 3
13 11 10 10 10 10 10 10 12 13 15 15 13 9 3 0 1 1 0 2 4 6 7 7 7 7 6 5 5 4 4 5 7 8 8 8 8 7 7 6 5 4 3
15 11 9 9 9 9 9 9 11 12 12 12 12 9 4 2 3 3 3 4 6 8 9 8 7 6 6 5 5 6 6 7 8 8 9 10 10 9 8 7 6 5 4
14 11 9 8 8 8 7 8 10 11 10 9 9 7 5 5 6 6 6 7 8 7 6 6 6 5 5 5 6 7 7 8 8 8 9 9 10 10 9 9 8 6 6
10 10 8 8 8 8 7 7 8 10 10 8 7 7 7 7 7 7 6 6 5 4 4 4 5 5 5 6 7 8 9 9 9 8 8 8 8 9 9 9 8 7 6
8 8 9 9 9 9 8 7 8 9 9 8 7 8 8 7 7 6 5 3 2 2 3 4 5 6 6 7 8 8 8 7 7 7 7 7 7 8 8 8 7 7 6
7 8 9 10 10 9 8 7 7 8 7 6 6 8 7 7 6 6 4 2 2 3 3 4 5 6 5 5 5 4 4 3 3 4 5 5 5 7 7 6 5 5 5
7 8 9 10 10 9 8 7 7 6 5 4 5 6 7 6 6 6 4 3 3 4 4 4 4 4 4 3 2 1 1 0 1 2 2 2 3 5 6 5 4 3 2
Wind_Speed
7 6 5 5 5 4 4 3 3 2 2 3 3 2 2 2 2 2 2 2 2 2 2 2 2 1 1 2 2 1 1 1 1 1 0 0 1 0 1 1 2 3 3
6 6 5 5 5 4 4 4 3 3 3 3 2 2 3 2 2 2 3 3 2 2 2 2 2 2 1 1 2 2 1 1 1 2 1 1 1 2 2 2 2 3 3
6 6 5 5 5 4 4 4 4 3 3 3 3 3 2 2 2 2 2 2 2 2 2 2 2 2 1 2 2 2 2 2 1 1 2 1 1 1 2 2 2 2 3
6 6 6 5 5 5 4 3 4 4 4 3 3 3 3 2 2 2 2 2 2 2 2 2 2 1 1 2 2 2 2 2 2 2 1 2 1 2 1 2 2 2 3
5 6 6 5 4 4 3 4 4 3 4 3 3 2 2 2 2 2 2 2 2 2 2 1 1 1 0 1 2 2 2 2 2 2 2 1 1 1 1 2 2 2 3
4 4 4 4 4 4 3 3 3 3 3 3 3 2 2 2 1 1 1 1 1 1 1 1 2 2 1 1 2 3 3 2 2 2 2 1 2 1 1 2 2 2 2
3 3 3 4 4 3 3 3 3 3 3 3 3 3 2 1 0 0 1 2 2 1 1 1 2 0 2 1 2 3 3 4 4 3 3 3 3 2 2 3 2 3 3
3 3 3 3 3 3 3 2 2 2 2 2 2 2 2 1 1 0 1 3 2 1 1 1 0 0 2 2 2 2 2 2 4 4 3 3 3 2 2 3 4 4 3
3 3 3 3 3 3 3 3 2 2 2 2 2 2 2 1 1 1 1 2 2 2 1 1 1 0 0 2 2 2 2 2 3 3 4 4 5 5 3 2 3 2 3
2 2 3 3 3 3 3 2 2 2 2 2 2 2 2 2 2 2 2 2 2 2 2 2 1 1 1 1 1 2 3 3 3 3 3 4 5 6 6 4 3 3 3
2 2 2 3 3 3 3 2 2 2 2 2 2 2 2 2 2 2 2 1 2 2 1 2 1 3 3 3 3 2 3 3 4 4 4 3 3 2 2 3 3 3 4
2 2 2 2 2 3 3 3 3 2 3 2 2 2 1 2 2 1 2 3 3 2 1 1 1 2 2 2 2 3 4 4 3 3 3 2 2 2 2 3 4 4 4
3 3 3 3 2 2 3 3 2 2 2 2 2 2 1 1 1 2 3 3 3 2 1 1 1 2 2 2 4 5 4 2 2 3 3 3 2 2 3 2 2 3 4
3 3 3 3 3 2 2 2 1 1 1 1 1 1 1 1 1 1 1 1 2 1 2 3 3 4 4 3 2 3 3 3 2 3 3 3 2 2 2 2 2 2 3
3 3 2 3 3 3 3 2 2 1 0 0 0 1 1 1 1 1 1 1 1 1 1 2 1 1 2 2 2 2 2 2 2 3 3 3 3 3 3 2 2 2 3
2 2 2 3 3 3 4 3 4 3 2 2 2 2 2 2 3 2 1 1 1 1 1 1 2 2 2 2 2 2 1 1 1 1 2 2 3 3 3 3 2 2 3
1 1 1 1 2 3 3 3 2 2 2 1 2 3 3 4 3 2 1 0 1 1 1 2 1 1 1 2 2 2 1 1 1 1 2 2 2 3 3 3 3 3 3
2 2 1 1 2 2 2 3 3 3 3 2 1 3 4 4 3 2 1 1 1 1 2 2 1 1 1 1 2 2 2 2 2 2 2 2 2 3 3 3 3 3 3
1 1 1 1 1 2 2 2 2 3 3 3 3 2 3 3 3 2 2 1 2 1 1 1 1 1 2 1 1 2 2 2 2 2 3 2 2 3 3 4 4 4 4
1 1 2 2 1 1 1 1 1 1 2 2 2 2 2 2 2 2 2 2 2 2 2 1 1 2 2 2 2 2 2 2 2 2 3 3 2 3 4 4 4 4 3
2 2 3 2 1 1 1 1 1 1 1 1 2 3 3 2 2 1 2 1 1 1 1 2 2 2 2 2 2 3 3 3 3 3 3 3 3 3 3 4 4 4 4
2 2 2 2 1 1 1 2 2 1 1 1 1 2 3 2 1 1 1 1 0 0 1 1 1 2 2 2 2 3 4 4 4 4 4 4 4 4 4 4 4 4 3
3 2 2 2 2 2 2 3 2 2 1 1 1 2 2 2 1 0 0 1 1 1 1 1 1 1 1 2 2 2 3 3 4 5 5 5 5 5 4 4 5 5 5
3 3 2 2 2 2 2 3 2 1 1 1 1 1 1 1 1 0 1 1 1 1 1 1 1 2 3 3 3 3 3 4 4 4 6 6 6 5 5 4 4 5 5
3 2 2 2 2 2 2 2 2 1 1 1 1 1 1 0 0 1 1 2 2 2 2 2 2 2 3 4 4 4 4 4 4 5 5 5 6 6 5 5 4 5 5
2 2 2 2 2 2 2 2 1 1 1 1 0 0 1 1 1 1 2 2 2 2 2 2 4 4 4 4 5 5 4 4 4 5 5 5 6 6 6 4 6 5 5
Wind_Direction
186 189 191 185 196 200 206 217 210 197 193 194 192 197 209 212 222 230 235 243 228 230 238 222 226 259 305 310 316 313 305 297 270 279 227 142 137 105 142 214 196 205 205
186 183 189 185 190 197 204 202 199 199 206 205 198 209 219 210 218 231 243 233 230 232 238 236 236 233 223 272 294 286 286 271 240 271 261 222 215 196 203 228 224 219 211
183 184 184 190 190 194 203 193 189 200 206 210 199 204 215 218 228 230 238 234 236 241 229 229 239 243 250 268 272 292 296 292 248 246 262 238 228 227 219 239 246 242 241
183 186 184 192 194 192 199 199 197 203 208 207 207 205 205 211 234 237 239 238 232 233 228 234 244 236 254 281 278 288 298 306 289 263 251 245 229 242 225 238 250 241 257
182 188 188 187 189 183 192 198 198 202 210 201 204 198 191 202 228 233 237 230 226 231 224 208 205 174 239 280 300 316 307 300 298 292 279 276 262 246 250 256 258 252 255
179 183 170 174 183 186 192 193 197 197 203 201 199 186 203 224 256 220 235 244 222 223 234 226 209 187 175 233 271 269 264 264 275 283 290 280 291 296 292 286 283 290 278
162 164 163 174 183 189 192 186 199 202 200 195 186 179 179 123 359 316 251 252 237 220 219 239 267 265 180 219 249 245 247 245 237 249 277 286 286 295 310 302 291 278 268
162 171 168 172 178 171 175 179 189 189 191 187 182 180 159 146 139 145 294 240 247 242 224 205 177 308 325 333 288 273 252 239 234 232 250 270 276 287 283 274 271 275 269
168 171 171 176 174 171 180 176 173 178 183 183 165 161 151 153 172 151 267 235 235 232 226 218 250 217 12 340 319 307 298 287 253 239 230 245 253 259 265 290 289 289 288
168 173 169 167 169 168 172 168 163 172 174 176 175 169 163 166 179 189 216 249 239 219 191 185 201 216 224 241 249 272 279 284 292 281 261 253 252 255 242 232 255 269 283
143 149 158 166 165 153 154 156 155 170 169 180 183 174 169 167 180 200 197 254 276 248 219 207 203 191 211 232 244 255 263 282 287 276 270 260 240 235 226 226 233 243 260
112 120 124 132 155 149 155 160 167 172 176 189 191 175 160 151 171 211 198 225 281 282 276 289 102 167 202 238 257 276 281 286 282 288 290 293 289 270 253 243 236 235 238
119 119 117 115 110 121 139 148 159 172 194 188 186 180 154 140 148 195 200 228 266 266 301 299 212 220 231 245 254 265 277 273 278 285 289 285 279 278 277 262 255 249 258
123 132 139 134 125 112 112 117 120 134 187 184 189 172 149 140 139 138 211 238 268 263 291 284 248 240 246 272 277 251 246 254 261 275 283 288 293 293 288 283 281 276 271
143 148 148 135 128 116 103 82 106 87 96 217 151 131 168 170 214 176 187 242 277 298 276 260 259 238 242 248 250 248 248 239 255 274 289 295 296 296 293 292 279 274 270
152 162 168 158 145 143 140 123 62 86 104 119 107 112 100 127 156 159 163 187 255 216 213 242 254 257 267 277 279 274 268 267 288 299 304 310 313 310 307 306 300 292 290
155 163 171 158 148 158 161 156 149 123 108 123 144 142 149 155 146 141 134 160 228 175 207 254 265 280 290 294 299 310 330 352 340 307 303 306 307 308 310 315 316 311 302
185 178 186 176 168 171 175 178 177 177 174 160 169 182 174 172 178 183 130 103 118 156 248 267 281 286 293 318 339 352 350 343 339 326 317 316 316 319 322 322 319 317 312
204 183 204 224 188 173 197 204 194 180 176 162 160 172 191 185 186 207 193 229 254 260 263 271 296 323 344 358 5 353 334 328 330 327 323 328 334 328 320 316 311 306 301
166 196 221 229 209 178 198 211 220 191 181 166 155 145 152 180 188 185 194 234 269 289 315 336 8 15 5 357 346 332 316 312 318 319 327 324 313 307 307 306 307 307 299
190 186 208 224 199 185 222 225 231 225 181 193 152 147 165 201 198 188 174 205 267 310 348 353 0 1 359 343 342 339 333 338 345 341 330 320 315 305 300 305 309 307 307
224 205 212 227 215 239 258 248 225 203 203 173 127 159 185 214 197 189 210 191 137 45 12 356 353 7 6 352 355 353 351 358 355 346 335 328 325 318 312 307 304 307 311
236 221 214 220 219 221 240 253 249 234 229 192 197 199 196 223 230 211 74 64 55 34 34 10 351 17 23 6 13 25 15 356 339 333 328 322 320 314 308 308 313 315 311
244 238 235 231 230 239 248 252 248 228 211 218 219 212 207 202 202 128 51 50 38 16 23 26 28 31 35 24 26 35 31 7 343 336 330 316 311 308 308 309 310 310 310
238 238 245 248 243 247 252 254 259 242 233 228 198 240 255 195 142 101 67 58 35 23 16 21 26 26 29 23 30 35 36 20 6 347 325 313 308 306 304 304 303 305 307
238 245 242 238 233 236 248 246 239 240 250 236 155 72 354 14 44 67 72 61 43 36 30 38 46 43 32 32 48 56 51 28 7 345 322 308 305 305 309 306 305 302 300